Printer-friendly version

IAU Minor Planet Center

Minor Planet Center

MPEC 2001-C36: 2001 CD32

The following Minor Planet Electronic Circular may be linked-to from your own Web pages, but must not otherwise be redistributed electronically.


Read MPEC 2001-C35 Read MPEC 2001-C37


M.P.E.C. 2001-C36                                Issued 2001 Feb. 14, 19:33 UT

     The Minor Planet Electronic Circulars contain information on unusual
         minor planets and routine data on comets.  They are published
   on behalf of Commission 20 of the International Astronomical Union by the
          Minor Planet Center, Smithsonian Astrophysical Observatory,
                          Cambridge, MA 02138, U.S.A.

             Prepared using the Tamkin Foundation Computer Network

                              MPC@CFA.HARVARD.EDU
          URL http://cfa-www.harvard.edu/iau/mpc.html  ISSN 1523-6714

                                   2001 CD32

Observations:
     K01C32D* C2001 02 12.17385 06 21 32.39 +64 59 55.8          17.6        704
     K01C32D  C2001 02 12.19008 06 21 32.01 +64 58 29.2          18.1        704
     K01C32D  C2001 02 12.20467 06 21 31.64 +64 57 11.9          18.0        704
     K01C32D  C2001 02 12.21938 06 21 31.37 +64 55 53.7          18.1        704
     K01C32D  C2001 02 12.23500 06 21 30.99 +64 54 30.8          17.9        704
     K01C32D  C2001 02 12.99636 06 21 24.90 +63 47 15.2                      557
     K01C32D  C2001 02 12.99741 06 21 24.88 +63 47 09.9                      557
     K01C32D  C2001 02 12.99954 06 21 24.90 +63 46 59.1                      557
     K01C32D  C2001 02 13.16924 06 21 25.37 +63 32 08.2          17.1        704
     K01C32D  C2001 02 13.18288 06 21 25.21 +63 30 56.5          17.4        704
     K01C32D  C2001 02 13.19653 06 21 25.00 +63 29 43.7          17.3        704
     K01C32D  C2001 02 13.21017 06 21 24.80 +63 28 31.3          17.7        704
     K01C32D  C2001 02 13.22387 06 21 24.67 +63 27 18.8          17.6        704
     K01C32D  C2001 02 13.23275 06 21 24.58 +63 26 31.7          17.6        704
     K01C32D  C2001 02 13.24637 06 21 24.30 +63 25 18.4          18.0        704
     K01C32D  C2001 02 13.25997 06 21 24.18 +63 24 06.8          17.9        704
     K01C32D  C2001 02 13.27361 06 21 24.02 +63 22 53.8          17.8        704
     K01C32D  C2001 02 13.28720 06 21 23.88 +63 21 41.4          17.8        704
     K01C32D  C2001 02 13.74907 06 21 25.77 +62 40 56.9          17.3 V      104
     K01C32D  C2001 02 13.75046 06 21 25.76 +62 40 49.5                      104
     K01C32D  C2001 02 13.75185 06 21 25.73 +62 40 42.3                      104
     K01C32D  C2001 02 13.75613 06 21 25.65 +62 40 20.1                      104
     K01C32D  C2001 02 13.90597 06 21 24.52 +62 27 06.0                      118
     K01C32D  C2001 02 13.90809 06 21 24.53 +62 26 53.9          17.0 R      118
     K01C32D  C2001 02 13.91123 06 21 24.53 +62 26 37.4                      118
     K01C32D  C2001 02 13.92747 06 21 24.49 +62 25 11.1                      557
     K01C32D  C2001 02 14.72714 06 21 30.10 +61 14 45.7                      557
     K01C32D  C2001 02 14.72803 06 21 30.05 +61 14 40.4                      557
     K01C32D  C2001 02 14.72892 06 21 30.03 +61 14 36.1                      557
     K01C32D  C2001 02 14.72981 06 21 30.08 +61 14 31.1          17.9 V      557
     K01C32D  C2001 02 14.73490 06 21 30.09 +61 14 04.6          17.2 R      046
     K01C32D  C2001 02 14.73561 06 21 30.09 +61 14 00.9                      046
     K01C32D  C2001 02 14.73659 06 21 30.13 +61 13 55.8                      046
     K01C32D  C2001 02 14.73782 06 21 30.08 +61 13 49.0                      046
     K01C32D  C2001 02 14.73888 06 21 30.13 +61 13 43.9                      046

Observer details:
046 Klet.  Observer M. Tichy.  0.57-m f/5.2 reflector + CCD.
104 San Marcello Pistoiese.  Observers L. Tesi, A. Boattini, M. Tombelli.
    Measurers G. Forti, L. Tesi, A. Boattini, M. Tombelli.  0.40-m f/5
    reflector + CCD.
118 Modra.  Observers A. Galad, P. Koleny.  0.6-m f/5.5 reflector + CCD.
557 Ondrejov.  Observers P. Pravec, L. Sarounova.  0.65-m f/3.6 reflector + CCD.
704 Lincoln Laboratory ETS, New Mexico.  Observers M. Blythe, F. Shelly,
    M. Bezpalko, R. Huber, L. Manguso, S. Adams.  Measurers J. Stuart,
    R. Sayer, J. B. Evans, H. Viggh.  1.0-m f/2.15 reflector + CCD.

Orbital elements:
2001 CD32
Epoch 2001 Jan. 31.0 TT = JDT 2451940.5                 Spahr
M  12.85257              (2000.0)            P               Q
n   0.39323980     Peri.  126.52531     -0.16352220     -0.86719413
a   1.8451474      Node   322.57946     +0.45512699     +0.35669284
e   0.2673352      Incl.   50.71844     +0.87528276     -0.34748317
P   2.51           H   16.5           G   0.15
From 35 observations 2001 Feb. 12-14.

Ephemeris:
2001 CD32                a,e,i = 1.85, 0.27, 51                  q = 1.3519
Date    TT    R. A. (2000) Decl.     Delta      r     Elong.  Phase     V
2001 02 10    06 22.34   +68 10.9    0.619    1.390   118.1    38.8    17.7
2001 02 20    06 23.32   +53 37.3    0.644    1.409   117.7    38.4    17.8
2001 03 02    06 30.69   +40 27.0    0.711    1.431   113.5    39.4    18.1
2001 03 12    06 40.60   +29 43.2    0.810    1.457   107.3    40.6    18.5
2001 03 22    06 51.88   +21 22.1    0.931    1.484   100.6    41.3    18.8
2001 04 01    07 04.12   +14 53.4    1.065    1.514    94.3    41.2    19.2
2001 04 11    07 17.08   +09 45.0    1.206    1.545    88.3    40.4    19.4
2001 04 21    07 30.64   +05 31.9    1.348    1.578    82.9    39.2    19.7
2001 05 01    07 44.74   +01 56.1    1.488    1.612    77.8    37.7    19.9
2001 05 11    07 59.31   -01 15.2    1.624    1.646    73.2    36.0    20.1
2001 05 21    08 14.33   -04 10.7    1.754    1.681    68.9    34.2    20.3
2001 05 31    08 29.80   -06 56.9    1.877    1.716    65.0    32.4    20.4

Timothy B. Spahr             (C) Copyright 2001 MPC           M.P.E.C. 2001-C36

Read MPEC 2001-C35 Read MPEC 2001-C37


Our Web policy. Index to the CBAT/MPC/ICQ pages.


Valid HTML 4.01!